Location: Mohawk View
(42.7837°N, 73.7885°W)
Time: 13:21:07
(UTC+00:00)

PSLV R/B - Pass Details

Date: 17 June 2021
Orbit: 598 x 700 km, 97.9° (Epoch: 30 July)

Event Time Altitude Azimuth Distance (km) Brightness Sun altitude
Rises 05:07:46 0° 13° (NNE) 2,886 8.4 -23.8°
Reaches altitude 10° 05:09:55 10° 15° (NNE) 1,988 7.2 -23.8°
Maximum altitude 05:14:15 82° 102° (ESE) 641 3.5 -23.7°
Enters shadow 05:14:22 81° 132° (SE) 643 3.4 -23.7°
